Regional Weather Roundup
Issued by NWS

Home | Current Version | Previous Version | Graphics & Text | Print | Product List | Glossary On
Versions: 1 2 3 4 5 6 7 8 9 10 11 12 13 14 15 16 17 18 19 20 21 22 23 24 25 26 27 28 29 30 31 32 33 34 35 36 37 38 39 40 41 42 43 44 45 46 47 48 49 50
260
ASUS45 KBOI 282010
RWRID

IDAHO REGIONAL WEATHER ROUNDUP
NATIONAL WEATHER SERVICE BOISE ID
200 PM MDT THU APR 28 2016

NOTE: "FAIR" INDICATES FEW OR NO CLOUDS BELOW 12000 FEET
WITH NO SIGNIFICANT WEATHER AND/OR OBSTRUCTIONS TO VISIBILITY

IDZ012-014-282100-
SOUTHWEST IDAHO


CITY           SKY/WX    TMP DP  RH WIND       PRES   REMARKS
BOISE          SUNNY     67  34  29 NW17      29.80F
CALDWELL       MOSUNNY   67  37  33 N18G28    29.82F
MOUNTAIN HOME  MOSUNNY   65  35  32 NW20G30   29.80F
$$

IDZ016-017-282100-
SOUTHCENTRAL IDAHO


CITY           SKY/WX    TMP DP  RH WIND       PRES   REMARKS
BURLEY         CLOUDY    55  35  47 VRB7      29.80S
JEROME         PTSUNNY   56  36  47 SW13      29.83F
TWIN FALLS     MOSUNNY   55  37  50 VRB5      29.84S
$$

IDZ019>023-282100-
SOUTHEAST IDAHO


CITY           SKY/WX    TMP DP  RH WIND       PRES   REMARKS
IDAHO FALLS    PTSUNNY   58  25  28 VRB3G18   29.80S
POCATELLO      MOSUNNY   59  31  34 N9        29.79S
REXBURG        CLOUDY    56  25  30 CALM      29.79F
$$

IDZ006-010-011-018-031-032-282100-
CENTRAL IDAHO MOUNTAINS


CITY           SKY/WX    TMP DP  RH WIND       PRES   REMARKS
MCCALL         CLOUDY    48  30  49 N13G22    29.89R
HAILEY         PTSUNNY   54  36  50 SE6       29.82S
STANLEY          N/A     47  24  40 N9        29.88F
SALMON         CLOUDY    50  28  43 N7        29.90F
CHALLIS        CLOUDY    50  25  37 NE12      29.88F
$$

IDZ002-004-006-007-026-282100-
NORTHERN IDAHO


CITY           SKY/WX    TMP DP  RH WIND       PRES   REMARKS
LEWISTON       PTSUNNY   65  41  41 NW12      29.95F
LOWELL           N/A     59  39  47 S10       29.94F
COEUR D`ALENE  PTSUNNY   61  36  39 NE7       29.95S
MULLAN PASS    CLOUDY    39  27  62 CALM      29.99S
$$




USA.gov is the U.S. government's official web portal to all federal, state and local government web resources and services.